Regional Weather Roundup
Issued by NWS

Home | Current Version | Previous Version | Graphics & Text | Print | Product List | Glossary On
Versions: 1 2 3 4 5 6 7 8 9 10 11 12 13 14 15 16 17 18 19 20 21 22 23 24 25 26 27 28 29 30 31 32 33 34 35 36 37 38 39 40 41 42 43 44 45 46 47 48 49 50
000
ASUS43 KDMX 190501
RWRIA

WEATHER ROUNDUP FOR IOWA
NATIONAL WEATHER SERVICE DES MOINES IA
1100 PM CST SAT NOV 18 2017

NOTE: "FAIR" INDICATES FEW OR NO CLOUDS BELOW 12,000 FEET WITH NO
SIGNIFICANT WEATHER AND/OR OBSTRUCTIONS TO VISIBILITY.

* - THESE STATIONS ARE NOT NWS STATIONS...THUS NOT UNDER NWS
QUALITY CONTROL.  THEY ALSO DO NOT REPORT WEATHER SUCH
AS PRECIPITATION OR FOG.

IAZ001>003-012>014-020>022-031>034-043>046-190600-
   NORTHWEST IOWA

CITY           SKY/WX    TMP DP  RH WIND       PRES   REMARKS
CARROLL *      CLEAR     28  19  69 NW15G26   30.13R WCI  17
DENISON *      CLEAR     28  19  69 NW12      30.17S WCI  18
LE MARS *      CLEAR     25  18  74 NW6       30.17R WCI  18
ORANGE CITY *  CLEAR     25  18  74 NW8       30.14R WCI  16
SHELDON *      CLEAR     23  14  68 NW5       30.12R WCI  17
SIOUX CITY     CLEAR     25  20  81 W8        30.18S WCI  16
SPENCER        CLEAR     21  15  78 NW10      30.12R WCI  10
STORM LAKE *   CLEAR     25  18  74 NW13      30.12R WCI  13
$$

IAZ055>058-069>071-079>083-090>094-190600-
   SOUTHWEST IOWA

CITY           SKY/WX    TMP DP  RH WIND       PRES   REMARKS
ATLANTIC *     CLEAR     30  21  69 NW8       30.16S WCI  23
AUDUBON *      CLEAR     28  19  69 NW8       30.15R WCI  20
CLARINDA *       N/A     32  23  69 NW9       30.20R WCI  24
COUNCIL BLFS * CLEAR     30  23  74 NW7       30.18S WCI  23
CRESTON *      CLEAR     28  21  74 NW14      30.15R WCI  17
HARLAN  *      CLEAR     27  21  80 NW9       30.19F WCI  17
LAMONI         CLEAR     31  21  66 NW13      30.13S WCI  21
RED OAK *      CLEAR     30  23  74 MISG      30.19R
SHENANDOAH *   CLEAR     30  23  74 W3        30.20S
$$

IAZ047>049-059>061-072>074-084-190600-
   CENTRAL IOWA

CITY           SKY/WX    TMP DP  RH WIND       PRES   REMARKS
AMES           CLEAR     28  20  71 NW12      30.10R WCI  18
ANKENY *       CLEAR     30  19  64 NW12      30.12R WCI  21
BOONE *        CLEAR     28  19  69 NW12G18   30.09R WCI  18
CHARITON *     CLEAR     30  21  69 NW13      30.10S WCI  20
DES MOINES     CLEAR     30  20  66 NW13      30.11R WCI  20
GRINNELL*      CLEAR     27  19  72 NW16G22   30.07S WCI  15
KNOXVILLE *    CLEAR     30  18  59 NW13      30.08S WCI  20
MARSHALLTOWN   CLEAR     26  18  71 NW17      30.06R WCI  13
NEWTON *       CLEAR     28  19  69 NW14G21   30.08S WCI  17
PELLA *        CLEAR     28  23  80 NW9       30.10S WCI  19
$$

IAZ004>006-015-016-023>025-035-036-190600-
   NORTH CENTRAL IOWA

CITY           SKY/WX    TMP DP  RH WIND       PRES   REMARKS
ALGONA *       CLEAR     23  18  80 NW12      30.09S WCI  12
CLARION *      CLEAR     25  18  74 NW15G21   30.09R WCI  12
ESTHERVILLE    CLEAR     20  14  77 NW12      30.10R WCI   8
FORT DODGE *   CLEAR     25  18  74 VRB3      30.11R
MASON CITY     CLEAR     22  12  65 NW22      30.06R WCI   6
FOREST CITY *    N/A     23  16  74 NW10G20   30.06S WCI  12
WEBSTER CITY * CLEAR     25  18  74 NW13      30.08R WCI  13
IOWA FALLS *     N/A     26  19  75 NW16      30.07R WCI  14
$$

IAZ007>011-017>019-026>030-037>042-050>054-066-190600-
   NORTHEAST IOWA

CITY           SKY/WX    TMP DP  RH WIND       PRES   REMARKS
CEDAR RAPIDS   CLEAR     26  19  74 NW17      30.01R WCI  13
CHARLES CITY * CLEAR     23  16  74 NW21      30.02R WCI   8
CLINTON *      MOCLDY    30  25  81 NW20      29.95R WCI  17
DECORAH *      CLOUDY    25  18  74 NW14G21   29.95R WCI  13
DUBUQUE        CLEAR     28  21  75 NW13      29.94R WCI  17
MONTICELLO *   CLEAR     28  21  74 NW17      29.97R WCI  16
OELWEIN *      CLEAR     25  19  80 NW18G26   29.99S WCI  11
WATERLOO       CLEAR     24  15  68 NW17G25   30.02S WCI  11
$$

IAZ064-065-067-068-078-190600-
   EAST CENTRAL IOWA

CITY           SKY/WX    TMP DP  RH WIND       PRES   REMARKS
DAVENPORT      PTCLDY    30  23  75 NW20G29   29.99R WCI  17
IOWA CITY      CLEAR     31  18  58 NW18G30   30.04R WCI  19
MT. PLEASANT * CLEAR     31  19  61 NW15G22   30.04R WCI  20
MUSCATINE *    PTCLDY    30  21  69 NW18G28   30.02S WCI  18
QUAD CITIES    MOCLDY    32  23  69 W14G26    29.98R WCI  22
$$

IAZ062-063-075>077-085>089-095>099-190600-
   SOUTHEAST IOWA

CITY           SKY/WX    TMP DP  RH WIND       PRES   REMARKS
BURLINGTON     CLEAR     31  22  69 NW18G25   30.02R WCI  19
FAIRFIELD *    CLEAR     30  19  64 NW18G26   30.05R WCI  18
FORT MADISON * CLEAR     30  21  69 NW18G28   30.05R WCI  18
KEOKUK *       CLEAR     32  21  64 NW16G23   30.05R WCI  21
OSKALOOSA *      N/A     29  22  77 NW12      30.07F WCI  19
OTTUMWA        CLEAR     30  21  69 NW14      30.07S WCI  19
WASHINGTON *   CLEAR     30  19  64 NW17G28   30.05R WCI  18
$$

ABBREVIATIONS USED IN REMARKS
   TC - TEMPERATURES IN CELSIUS
  WCI - WIND CHILL INDEX
   HX - HEAT INDEX
  VSB - VISIBILITY
$$




USA.gov is the U.S. government's official web portal to all federal, state and local government web resources and services.